TimeMST,TemperatureF,Dew PointF,Humidity,Sea Level PressureIn,VisibilityMPH,Wind Direction,Wind SpeedMPH,Gust SpeedMPH,PrecipitationIn,Events,Conditions,WindDirDegrees,DateUTC
12:52 AM,28.9,25.0,85,30.26,10.0,WSW,3.5,-,N/A,,Clear,250,2012-11-15 07:52:00
1:52 AM,28.9,26.1,89,30.29,10.0,Calm,Calm,-,N/A,,Overcast,0,2012-11-15 08:52:00
2:52 AM,27.0,24.1,89,30.31,10.0,Calm,Calm,-,N/A,,Scattered Clouds,0,2012-11-15 09:52:00
3:52 AM,27.0,23.0,85,30.35,10.0,Variable,4.6,-,N/A,,Clear,0,2012-11-15 10:52:00
4:52 AM,27.0,24.1,89,30.37,10.0,West,3.5,-,N/A,,Partly Cloudy,260,2012-11-15 11:52:00
5:52 AM,26.1,23.0,88,30.41,10.0,Calm,Calm,-,N/A,,Clear,0,2012-11-15 12:52:00
6:52 AM,19.9,18.0,92,30.47,10.0,NE,4.6,-,N/A,,Clear,50,2012-11-15 13:52:00
7:52 AM,26.1,23.0,88,30.47,10.0,Calm,Calm,-,N/A,,Clear,0,2012-11-15 14:52:00
8:52 AM,34.0,28.0,79,30.46,10.0,Calm,Calm,-,N/A,,Clear,0,2012-11-15 15:52:00
9:52 AM,39.9,28.9,65,30.45,10.0,Calm,Calm,-,N/A,,Clear,0,2012-11-15 16:52:00
10:52 AM,44.1,27.0,51,30.45,10.0,Calm,Calm,-,N/A,,Clear,0,2012-11-15 17:52:00
11:52 AM,46.0,27.0,47,30.43,10.0,Calm,Calm,-,N/A,,Clear,0,2012-11-15 18:52:00
12:52 PM,48.0,27.0,44,30.40,10.0,South,3.5,-,N/A,,Clear,190,2012-11-15 19:52:00
1:52 PM,48.9,26.1,41,30.39,10.0,Calm,Calm,-,N/A,,Clear,0,2012-11-15 20:52:00
2:52 PM,48.9,24.1,38,30.39,10.0,Calm,Calm,-,N/A,,Clear,0,2012-11-15 21:52:00
3:52 PM,46.9,25.0,42,30.39,10.0,East,6.9,-,N/A,,Clear,90,2012-11-15 22:52:00
4:52 PM,36.0,25.0,64,30.41,10.0,ESE,8.1,-,N/A,,Clear,110,2012-11-15 23:52:00
5:52 PM,33.1,25.0,72,30.42,10.0,East,9.2,-,N/A,,Clear,80,2012-11-16 00:52:00
6:52 PM,37.9,27.0,65,30.43,10.0,SE,10.4,-,N/A,,Clear,130,2012-11-16 01:52:00
8:52 PM,39.9,25.0,55,30.38,10.0,SSE,17.3,26.5,N/A,,Clear,150,2012-11-16 03:52:00
9:52 PM,39.9,24.1,53,30.34,10.0,SSE,20.7,27.6,N/A,,Clear,150,2012-11-16 04:52:00
10:52 PM,39.0,24.1,55,30.31,10.0,South,19.6,27.6,N/A,,Clear,170,2012-11-16 05:52:00
11:52 PM,37.9,24.1,57,30.29,10.0,South,19.6,28.8,N/A,,Clear,170,2012-11-16 06:52:00